Weather in Pabrade

Lithuania     54°58′53″N   25°45′59″E
temp.,
°C
wind,
m/s
gust,
m/s
humid.,
%
clouds,
%
prec.,
mm/h
press.,
hPa
HPBL,
m
27 july, tue
tue2700:00+19se3107588 0.0 1017237
03:00+20ese31066100 0.0 1016308
06:00+19se3118396 0.7 1015394
09:00+20se41086100 1.8 1014552
12:00+26sse585499 0.0 10131385
15:00+26s586221 1.7 10121309
18:00+25ssw477455 2.3 1011704
21:00+21ssw389394 3.3 1011240
28 july, wed
wed2800:00+19s2696100 0.6 1012167
03:00+18wsw1198100 0.9 101118
06:00+17wsw23975 0.3 101172
09:00+21w34825 0.3 1012418
12:00+26w455034 0.0 10111336
15:00+28w46425 0.0 10112151
18:00+27w454615 0.0 10102091
21:00+21nw22744 0.0 101014
29 july, thu
thu2900:00+18sw1182100 0.0 101111
03:00+18sw1180100 0.0 101013
06:00+18sw279334 0.3 1010207
09:00+19sw2786100 0.3 1010336
12:00+25wsw45555 0.1 10091343
15:00+27w464450 0.2 10082162
18:00+26w46475 0.0 10081899
21:00+21wnw2667100 0.0 1008235
30 july, fri
fri3000:00+20ssw2272100 0.0 100942
03:00+18ssw268884 0.3 1008156
06:00+15sw398976 0.1 1008238
09:00+21sw496094 0.1 1008525
12:00+20sw396199 0.0 1008898
15:00+24sw61246100 0.0 10072189
18:00+23wsw5114647 0.0 10062194
21:00+19ssw386212 0.0 1005299
31 july, sat
sat3100:00+16ssw39755 0.0 1005194
03:00+16wsw38740 0.0 1005312
06:00+12ssw39871 0.0 1005197
09:00+19sw59550 0.0 1005873
12:00+23wsw610404 0.0 10051833
15:00+24wsw610380 0.0 10051967
18:00+24wsw5114611 0.0 10051731
21:00+17ssw278859 0.8 1005199